Terminal Aerodrome Forecast
Issued by NWS

Home | Current Version | Previous Version | Text Only | Print | Product List | Glossary On
Versions: 1 2 3 4 5 6 7 8 9 10 11 12 13 14 15 16 17 18
000
FTUS43 KFGF 221500 AAB
TAFDVL
TAF AMD
KDVL 221554Z 2216/2312 07006KT 5SM BR OVC015
      TEMPO 2216/2220 BKN009
     FM222300 04009KT 2SM -SN BR OVC005
     FM230800 01015KT 2SM -SN BR OVC007
      AMD LTD TO CLD VIS AND WIND=

USA.gov is the U.S. government's official web portal to all federal, state and local government web resources and services.